owner,sensor,date,latitude,longitude,vertical_datum,sea_water_speed,direction_of_sea_water_velocity,upward_sea_water_velocity,qcFlag
BP,ioos:station:wmo:42369:4,2021-01-01T00:00:00Z,27.2133,-90.2809,1343.0,6.7,258.9,-9999.0,'111111111,111111111,999999991'
BP,ioos:station:wmo:42369:4,2021-01-01T00:20:00Z,27.2133,-90.2809,1343.0,6.6,262.1,-9999.0,'111111111,111111111,999999991'
BP,ioos:station:wmo:42369:4,2021-01-01T00:40:00Z,27.2130,-90.2795,1343.0,5.7,264.0,-9999.0,'111111111,111111111,999999991'
BP,ioos:station:wmo:42369:4,2021-01-01T01:00:00Z,27.2129,-90.2792,1343.0,5.8,258.1,-9999.0,'111111111,111111111,999999991'
BP,ioos:station:wmo:42369:4,2021-01-01T01:20:00Z,27.2129,-90.2791,1343.0,4.8,264.1,-9999.0,'111111111,111111111,999999991'
BP,ioos:station:wmo:42369:4,2021-01-01T01:40:00Z,27.2129,-90.2791,1343.0,4.1,250.3,-9999.0,'111111111,111111111,999999991'
BP,ioos:station:wmo:42369:4,2021-01-01T02:00:00Z,27.2127,-90.2785,1343.0,6.3,257.1,-9999.0,'111111111,111111111,999999991'
BP,ioos:station:wmo:42369:4,2021-01-01T02:20:00Z,27.2126,-90.2784,1343.0,6.8,263.3,-9999.0,'111111111,111111111,999999991'
BP,ioos:station:wmo:42369:4,2021-01-01T02:40:00Z,27.2126,-90.2784,1343.0,5.5,270.0,-9999.0,'111111111,111111111,999999991'
BP,ioos:station:wmo:42369:4,2021-01-01T03:00:00Z,27.2123,-90.2779,1343.0,6.0,265.2,-9999.0,'111111111,111111111,999999991'
BP,ioos:station:wmo:42369:4,2021-01-01T03:20:00Z,27.2123,-90.2779,1343.0,6.8,274.2,-9999.0,'111111111,111111111,999999991'
BP,ioos:station:wmo:42369:4,2021-01-01T03:40:00Z,27.2123,-90.2779,1343.0,6.5,284.3,-9999.0,'111111111,111111111,999999991'
BP,ioos:station:wmo:42369:4,2021-01-01T04:00:00Z,27.2123,-90.2779,1343.0,7.1,296.9,-9999.0,'111111111,111111111,999999991'
BP,ioos:station:wmo:42369:4,2021-01-01T04:20:00Z,27.2122,-90.2780,1343.0,6.2,317.0,-9999.0,'111111111,111111111,999999991'
BP,ioos:station:wmo:42369:4,2021-01-01T04:40:00Z,27.2121,-90.2779,1343.0,6.6,298.9,-9999.0,'111111111,111111111,999999991'
BP,ioos:station:wmo:42369:4,2021-01-01T05:00:00Z,27.2120,-90.2778,1343.0,7.0,309.8,-9999.0,'111111111,111111111,999999991'
BP,ioos:station:wmo:42369:4,2021-01-01T05:20:00Z,27.2114,-90.2771,1343.0,6.3,308.0,-9999.0,'111111111,111111111,999999991'
BP,ioos:station:wmo:42369:4,2021-01-01T05:40:00Z,27.2091,-90.2750,1343.0,4.8,321.7,-9999.0,'111111111,111111111,999999991'
BP,ioos:station:wmo:42369:4,2021-01-01T06:00:00Z,27.2077,-90.2743,1343.0,6.2,320.9,-9999.0,'111111111,111111111,999999991'
BP,ioos:station:wmo:42369:4,2021-01-01T06:20:00Z,27.2061,-90.2739,1343.0,5.4,327.2,-9999.0,'111111111,111111111,999999991'
BP,ioos:station:wmo:42369:4,2021-01-01T06:40:00Z,27.2047,-90.2740,1343.0,5.1,335.5,-9999.0,'111111111,111111111,999999991'
BP,ioos:station:wmo:42369:4,2021-01-01T07:00:00Z,27.2037,-90.2744,1343.0,5.0,347.3,-9999.0,'111111111,111111111,999999991'
BP,ioos:station:wmo:42369:4,2021-01-01T07:20:00Z,27.2027,-90.2749,1343.0,4.1,355.8,-9999.0,'111111111,111111111,999999991'
BP,ioos:station:wmo:42369:4,2021-01-01T07:40:00Z,27.2022,-90.2752,1343.0,5.3,0.0,-9999.0,'111111111,111441111,999999991'
BP,ioos:station:wmo:42369:4,2021-01-01T08:00:00Z,27.2016,-90.2756,1343.0,5.2,1.1,-9999.0,'111111111,111111111,999999991'
BP,ioos:station:wmo:42369:4,2021-01-01T08:20:00Z,27.2011,-90.2761,1343.0,4.9,14.0,-9999.0,'111111111,111111111,999999991'
BP,ioos:station:wmo:42369:4,2021-01-01T08:40:00Z,27.2011,-90.2761,1343.0,4.2,0.0,-9999.0,'111111111,111441111,999999991'
BP,ioos:station:wmo:42369:4,2021-01-01T09:00:00Z,27.2003,-90.2771,1343.0,5.1,10.2,-9999.0,'111111111,111111111,999999991'
BP,ioos:station:wmo:42369:4,2021-01-01T09:20:00Z,27.2002,-90.2775,1343.0,4.1,18.4,-9999.0,'111111111,111111111,999999991'
BP,ioos:station:wmo:42369:4,2021-01-01T09:40:00Z,27.2002,-90.2775,1343.0,5.6,28.9,-9999.0,'111111111,111111111,999999991'
BP,ioos:station:wmo:42369:4,2021-01-01T10:00:00Z,27.1995,-90.2787,1343.0,5.1,27.1,-9999.0,'111111111,111111111,999999991'
BP,ioos:station:wmo:42369:4,2021-01-01T10:20:00Z,27.1994,-90.2790,1343.0,7.1,43.3,-9999.0,'111111111,111111111,999999991'
BP,ioos:station:wmo:42369:4,2021-01-01T10:40:00Z,27.1994,-90.2790,1343.0,5.6,41.4,-9999.0,'111111111,111111111,999999991'
BP,ioos:station:wmo:42369:4,2021-01-01T11:00:00Z,27.1992,-90.2798,1343.0,6.4,65.9,-9999.0,'111111111,111111111,999999991'
BP,ioos:station:wmo:42369:4,2021-01-01T11:20:00Z,27.1991,-90.2800,1343.0,5.5,64.4,-9999.0,'111111111,111111111,999999991'
BP,ioos:station:wmo:42369:4,2021-01-01T11:40:00Z,27.1991,-90.2800,1343.0,7.7,61.1,-9999.0,'111111111,111111111,999999991'
BP,ioos:station:wmo:42369:4,2021-01-01T12:00:00Z,27.1991,-90.2810,1343.0,7.2,69.5,-9999.0,'111111111,111111111,999999991'
BP,ioos:station:wmo:42369:4,2021-01-01T12:20:00Z,27.1990,-90.2811,1343.0,6.6,78.7,-9999.0,'111111111,111111111,999999991'
BP,ioos:station:wmo:42369:4,2021-01-01T12:40:00Z,27.1990,-90.2811,1343.0,5.8,85.1,-9999.0,'111111111,111111111,999999991'
BP,ioos:station:wmo:42369:4,2021-01-01T13:00:00Z,27.1990,-90.2823,1343.0,5.6,96.1,-9999.0,'111111111,111111111,999999991'
BP,ioos:station:wmo:42369:4,2021-01-01T13:20:00Z,27.1991,-90.2825,1343.0,5.7,99.1,-9999.0,'111111111,111111111,999999991'
BP,ioos:station:wmo:42369:4,2021-01-01T13:40:00Z,27.1991,-90.2825,1343.0,4.0,100.2,-9999.0,'111111111,111111111,999999991'
BP,ioos:station:wmo:42369:4,2021-01-01T14:00:00Z,27.1993,-90.2837,1343.0,3.6,96.3,-9999.0,'111111111,111111111,999999991'
BP,ioos:station:wmo:42369:4,2021-01-01T14:20:00Z,27.1993,-90.2839,1343.0,3.6,121.5,-9999.0,'111111111,111111111,999999991'
BP,ioos:station:wmo:42369:4,2021-01-01T14:40:00Z,27.1993,-90.2839,1343.0,3.2,124.7,-9999.0,'111111111,111111111,999999991'
BP,ioos:station:wmo:42369:4,2021-01-01T15:00:00Z,27.1995,-90.2844,1343.0,4.0,140.0,-9999.0,'111111111,111111111,999999991'
BP,ioos:station:wmo:42369:4,2021-01-01T15:20:00Z,27.1996,-90.2846,1343.0,4.5,139.5,-9999.0,'111111111,111111111,999999991'
BP,ioos:station:wmo:42369:4,2021-01-01T15:40:00Z,27.1997,-90.2850,1343.0,3.8,139.2,-9999.0,'111111111,111111111,999999991'
BP,ioos:station:wmo:42369:4,2021-01-01T16:00:00Z,27.1995,-90.2845,1343.0,4.7,165.1,-9999.0,'111111111,111111111,999999991'
BP,ioos:station:wmo:42369:4,2021-01-01T16:20:00Z,27.1995,-90.2845,1343.0,3.7,164.5,-9999.0,'111111111,111111111,999999991'
BP,ioos:station:wmo:42369:4,2021-01-01T16:40:00Z,27.2000,-90.2859,1343.0,4.7,166.6,-9999.0,'111111111,111111111,999999991'
BP,ioos:station:wmo:42369:4,2021-01-01T17:00:00Z,27.2000,-90.2859,1343.0,4.5,174.9,-9999.0,'111111111,111111111,999999991'
BP,ioos:station:wmo:42369:4,2021-01-01T17:20:00Z,27.2000,-90.2858,1343.0,5.0,173.2,-9999.0,'111111111,111111111,999999991'
BP,ioos:station:wmo:42369:4,2021-01-01T17:40:00Z,27.1998,-90.2856,1343.0,4.3,174.7,-9999.0,'111111111,111111111,999999991'
BP,ioos:station:wmo:42369:4,2021-01-01T18:00:00Z,27.1997,-90.2856,1343.0,4.9,188.3,-9999.0,'111111111,111111111,999999991'
BP,ioos:station:wmo:42369:4,2021-01-01T18:20:00Z,27.1998,-90.2856,1343.0,4.6,188.8,-9999.0,'111111111,111111111,999999991'
BP,ioos:station:wmo:42369:4,2021-01-01T18:40:00Z,27.1998,-90.2856,1343.0,5.1,200.6,-9999.0,'111111111,111111111,999999991'
BP,ioos:station:wmo:42369:4,2021-01-01T19:00:00Z,27.2000,-90.2857,1343.0,4.4,211.2,-9999.0,'111111111,111111111,999999991'
BP,ioos:station:wmo:42369:4,2021-01-01T19:20:00Z,27.2001,-90.2857,1343.0,4.9,211.8,-9999.0,'111111111,111111111,999999991'
BP,ioos:station:wmo:42369:4,2021-01-01T19:40:00Z,27.2001,-90.2857,1343.0,6.0,219.6,-9999.0,'111111111,111111111,999999991'
BP,ioos:station:wmo:42369:4,2021-01-01T20:00:00Z,27.2006,-90.2860,1343.0,7.5,211.4,-9999.0,'111111111,111111111,999999991'
BP,ioos:station:wmo:42369:4,2021-01-01T20:20:00Z,27.2006,-90.2859,1343.0,7.2,234.1,-9999.0,'111111111,111111111,999999991'
BP,ioos:station:wmo:42369:4,2021-01-01T20:40:00Z,27.2006,-90.2859,1343.0,7.8,225.0,-9999.0,'111111111,111111111,999999991'
BP,ioos:station:wmo:42369:4,2021-01-01T21:00:00Z,27.2009,-90.2863,1343.0,7.8,218.2,-9999.0,'111111111,111111111,999999991'
BP,ioos:station:wmo:42369:4,2021-01-01T21:20:00Z,27.2010,-90.2863,1343.0,8.4,218.2,-9999.0,'111111111,111111111,999999991'
BP,ioos:station:wmo:42369:4,2021-01-01T21:40:00Z,27.2010,-90.2863,1343.0,8.8,220.4,-9999.0,'111111111,111111111,999999991'
BP,ioos:station:wmo:42369:4,2021-01-01T22:00:00Z,27.2013,-90.2862,1343.0,8.3,220.6,-9999.0,'111111111,111111111,999999991'
BP,ioos:station:wmo:42369:4,2021-01-01T22:20:00Z,27.2013,-90.2862,1343.0,9.2,215.8,-9999.0,'111111111,111111111,999999991'
BP,ioos:station:wmo:42369:4,2021-01-01T22:40:00Z,27.2013,-90.2862,1343.0,6.9,228.0,-9999.0,'111111111,111111111,999999991'
BP,ioos:station:wmo:42369:4,2021-01-01T23:00:00Z,27.2013,-90.2860,1343.0,6.6,238.0,-9999.0,'111111111,111111111,999999991'
BP,ioos:station:wmo:42369:4,2021-01-01T23:20:00Z,27.2012,-90.2859,1343.0,7.5,235.9,-9999.0,'111111111,111111111,999999991'
BP,ioos:station:wmo:42369:4,2021-01-01T23:40:00Z,27.2012,-90.2859,1343.0,7.4,235.5,-9999.0,'111111111,111111111,999999991'
BP,ioos:station:wmo:42369:4,2021-01-02T00:00:00Z,27.2008,-90.2856,1343.0,6.9,253.9,-9999.0,'111111111,111111111,999999991'
BP,ioos:station:wmo:42369:4,2021-01-02T00:20:00Z,27.2007,-90.2853,1343.0,6.3,242.6,-9999.0,'111111111,111111111,999999991'
BP,ioos:station:wmo:42369:4,2021-01-02T00:40:00Z,27.2007,-90.2855,1343.0,7.3,250.8,-9999.0,'111111111,111111111,999999991'
BP,ioos:station:wmo:42369:4,2021-01-02T01:00:00Z,27.2007,-90.2855,1343.0,6.6,249.6,-9999.0,'111111111,111111111,999999991'
BP,ioos:station:wmo:42369:4,2021-01-02T01:20:00Z,27.2003,-90.2847,1343.0,6.5,259.4,-9999.0,'111111111,111111111,999999991'
BP,ioos:station:wmo:42369:4,2021-01-02T01:40:00Z,27.2002,-90.2845,1343.0,7.4,258.2,-9999.0,'111111111,111111111,999999991'
BP,ioos:station:wmo:42369:4,2021-01-02T02:00:00Z,27.2000,-90.2841,1343.0,6.9,274.1,-9999.0,'111111111,111111111,999999991'
BP,ioos:station:wmo:42369:4,2021-01-02T02:20:00Z,27.1999,-90.2839,1343.0,6.9,270.8,-9999.0,'111111111,111111111,999999991'
BP,ioos:station:wmo:42369:4,2021-01-02T02:40:00Z,27.1999,-90.2839,1343.0,7.0,270.0,-9999.0,'111111111,111111111,999999991'
BP,ioos:station:wmo:42369:4,2021-01-02T03:00:00Z,27.1995,-90.2832,1343.0,6.9,271.7,-9999.0,'111111111,111111111,999999991'
BP,ioos:station:wmo:42369:4,2021-01-02T03:20:00Z,27.1995,-90.2830,1343.0,6.9,271.7,-9999.0,'111111111,111111111,999999991'
BP,ioos:station:wmo:42369:4,2021-01-02T03:40:00Z,27.1994,-90.2829,1343.0,6.8,270.0,-9999.0,'111111111,111111111,999999991'
BP,ioos:station:wmo:42369:4,2021-01-02T04:00:00Z,27.1994,-90.2827,1343.0,6.9,265.9,-9999.0,'111111111,111111111,999999991'
BP,ioos:station:wmo:42369:4,2021-01-02T04:20:00Z,27.1994,-90.2826,1343.0,6.9,271.7,-9999.0,'111111111,111111111,999999991'
BP,ioos:station:wmo:42369:4,2021-01-02T04:40:00Z,27.1994,-90.2826,1343.0,6.8,272.5,-9999.0,'111111111,111111111,999999991'
BP,ioos:station:wmo:42369:4,2021-01-02T05:00:00Z,27.1994,-90.2826,1343.0,7.9,266.4,-9999.0,'111111111,111111111,999999991'
BP,ioos:station:wmo:42369:4,2021-01-02T05:20:00Z,27.1993,-90.2827,1343.0,7.4,257.5,-9999.0,'111111111,111111111,999999991'
BP,ioos:station:wmo:42369:4,2021-01-02T05:40:00Z,27.1994,-90.2826,1343.0,7.6,264.7,-9999.0,'111111111,111111111,999999991'
BP,ioos:station:wmo:42369:4,2021-01-02T06:00:00Z,27.1994,-90.2826,1343.0,7.1,268.4,-9999.0,'111111111,111111111,999999991'
BP,ioos:station:wmo:42369:4,2021-01-02T06:20:00Z,27.1991,-90.2826,1343.0,8.3,274.8,-9999.0,'111111111,111111111,999999991'
BP,ioos:station:wmo:42369:4,2021-01-02T06:40:00Z,27.1991,-90.2826,1343.0,8.0,279.3,-9999.0,'111111111,111111111,999999991'
BP,ioos:station:wmo:42369:4,2021-01-02T07:00:00Z,27.1990,-90.2826,1343.0,9.0,275.1,-9999.0,'111111111,111111111,999999991'
BP,ioos:station:wmo:42369:4,2021-01-02T07:20:00Z,27.1990,-90.2826,1343.0,8.7,275.3,-9999.0,'111111111,111111111,999999991'
BP,ioos:station:wmo:42369:4,2021-01-02T07:40:00Z,27.1990,-90.2826,1343.0,8.1,279.2,-9999.0,'111111111,111111111,999999991'
BP,ioos:station:wmo:42369:4,2021-01-02T08:00:00Z,27.1989,-90.2826,1343.0,9.2,282.5,-9999.0,'111111111,111111111,999999991'
BP,ioos:station:wmo:42369:4,2021-01-02T08:20:00Z,27.1988,-90.2826,1343.0,10.5,277.1,-9999.0,'111111111,111111111,999999991'
BP,ioos:station:wmo:42369:4,2021-01-02T08:40:00Z,27.1988,-90.2827,1343.0,11.6,280.9,-9999.0,'111111111,111111111,999999991'
BP,ioos:station:wmo:42369:4,2021-01-02T09:00:00Z,27.1987,-90.2827,1343.0,10.1,285.6,-9999.0,'111111111,111111111,999999991'
BP,ioos:station:wmo:42369:4,2021-01-02T09:20:00Z,27.1987,-90.2828,1343.0,8.2,295.9,-9999.0,'111111111,111111111,999999991'
BP,ioos:station:wmo:42369:4,2021-01-02T09:40:00Z,27.1987,-90.2830,1343.0,7.8,286.3,-9999.0,'111111111,111111111,999999991'
BP,ioos:station:wmo:42369:4,2021-01-02T10:00:00Z,27.1987,-90.2831,1343.0,7.5,292.8,-9999.0,'111111111,111111111,999999991'
BP,ioos:station:wmo:42369:4,2021-01-02T10:20:00Z,27.1987,-90.2830,1343.0,8.1,301.3,-9999.0,'111111111,111111111,999999991'
BP,ioos:station:wmo:42369:4,2021-01-02T10:40:00Z,27.1987,-90.2831,1343.0,8.2,293.7,-9999.0,'111111111,111111111,999999991'
BP,ioos:station:wmo:42369:4,2021-01-02T11:00:00Z,27.1987,-90.2832,1343.0,9.0,297.7,-9999.0,'111111111,111111111,999999991'
BP,ioos:station:wmo:42369:4,2021-01-02T11:20:00Z,27.1987,-90.2833,1343.0,6.6,308.3,-9999.0,'111111111,111111111,999999991'
BP,ioos:station:wmo:42369:4,2021-01-02T11:40:00Z,27.1987,-90.2833,1343.0,6.2,320.2,-9999.0,'111111111,111111111,999999991'
BP,ioos:station:wmo:42369:4,2021-01-02T12:00:00Z,27.1987,-90.2834,1343.0,5.8,316.4,-9999.0,'111111111,111111111,999999991'
BP,ioos:station:wmo:42369:4,2021-01-02T12:20:00Z,27.1987,-90.2837,1343.0,6.7,311.3,-9999.0,'111111111,111111111,999999991'
BP,ioos:station:wmo:42369:4,2021-01-02T12:40:00Z,27.1988,-90.2839,1343.0,5.2,319.6,-9999.0,'111111111,111111111,999999991'
BP,ioos:station:wmo:42369:4,2021-01-02T13:00:00Z,27.1988,-90.2840,1343.0,4.5,305.1,-9999.0,'111111111,111111111,999999991'
BP,ioos:station:wmo:42369:4,2021-01-02T13:20:00Z,27.1988,-90.2840,1343.0,4.8,307.3,-9999.0,'111111111,111111111,999999991'
BP,ioos:station:wmo:42369:4,2021-01-02T13:40:00Z,27.1988,-90.2841,1343.0,4.7,315.0,-9999.0,'111111111,111111111,999999991'
BP,ioos:station:wmo:42369:4,2021-01-02T14:00:00Z,27.1987,-90.2840,1343.0,6.0,309.0,-9999.0,'111111111,111111111,999999991'
BP,ioos:station:wmo:42369:4,2021-01-02T14:20:00Z,27.1987,-90.2839,1343.0,4.2,298.4,-9999.0,'111111111,111111111,999999991'
BP,ioos:station:wmo:42369:4,2021-01-02T14:40:00Z,27.1987,-90.2838,1343.0,3.2,291.8,-9999.0,'111111111,111111111,999999991'
BP,ioos:station:wmo:42369:4,2021-01-02T15:00:00Z,27.1987,-90.2836,1343.0,3.1,275.5,-9999.0,'111111111,111111111,999999991'
BP,ioos:station:wmo:42369:4,2021-01-02T15:20:00Z,27.1986,-90.2834,1343.0,4.0,292.1,-9999.0,'111111111,111111111,999999991'
BP,ioos:station:wmo:42369:4,2021-01-02T15:40:00Z,27.1986,-90.2833,1343.0,3.0,295.7,-9999.0,'111331111,111111111,999999991'
BP,ioos:station:wmo:42369:4,2021-01-02T16:00:00Z,27.1986,-90.2831,1343.0,4.7,279.9,-9999.0,'111111111,111111111,999999991'
BP,ioos:station:wmo:42369:4,2021-01-02T16:20:00Z,27.1986,-90.2829,1343.0,4.5,272.5,-9999.0,'111111111,111111111,999999991'
BP,ioos:station:wmo:42369:4,2021-01-02T16:40:00Z,27.1986,-90.2829,1343.0,4.1,277.0,-9999.0,'111111111,111111111,999999991'
BP,ioos:station:wmo:42369:4,2021-01-02T17:00:00Z,27.1987,-90.2830,1343.0,4.8,278.5,-9999.0,'111111111,111111111,999999991'
BP,ioos:station:wmo:42369:4,2021-01-02T17:20:00Z,27.1987,-90.2831,1343.0,5.8,294.4,-9999.0,'111111111,111111111,999999991'
BP,ioos:station:wmo:42369:4,2021-01-02T17:40:00Z,27.1987,-90.2832,1343.0,6.2,277.5,-9999.0,'111111111,111111111,999999991'
BP,ioos:station:wmo:42369:4,2021-01-02T18:00:00Z,27.1987,-90.2831,1343.0,5.9,273.9,-9999.0,'111111111,111111111,999999991'
BP,ioos:station:wmo:42369:4,2021-01-02T18:20:00Z,27.1988,-90.2832,1343.0,6.3,268.2,-9999.0,'111111111,111111111,999999991'
BP,ioos:station:wmo:42369:4,2021-01-02T18:40:00Z,27.1987,-90.2831,1343.0,6.3,271.8,-9999.0,'111111111,111111111,999999991'
BP,ioos:station:wmo:42369:4,2021-01-02T19:00:00Z,27.1986,-90.2828,1343.0,6.9,275.8,-9999.0,'111111111,111111111,999999991'
BP,ioos:station:wmo:42369:4,2021-01-02T19:20:00Z,27.1986,-90.2825,1343.0,6.5,271.8,-9999.0,'111111111,111111111,999999991'
BP,ioos:station:wmo:42369:4,2021-01-02T19:40:00Z,27.1986,-90.2824,1343.0,4.9,267.7,-9999.0,'111111111,111111111,999999991'
BP,ioos:station:wmo:42369:4,2021-01-02T20:00:00Z,27.1987,-90.2820,1343.0,5.8,270.0,-9999.0,'111111111,111111111,999999991'
BP,ioos:station:wmo:42369:4,2021-01-02T20:20:00Z,27.1988,-90.2818,1343.0,5.4,284.0,-9999.0,'111111111,111111111,999999991'
BP,ioos:station:wmo:42369:4,2021-01-02T20:40:00Z,27.1988,-90.2818,1343.0,7.0,279.9,-9999.0,'111111111,111111111,999999991'
BP,ioos:station:wmo:42369:4,2021-01-02T21:00:00Z,27.1989,-90.2816,1343.0,6.9,279.2,-9999.0,'111111111,111111111,999999991'
BP,ioos:station:wmo:42369:4,2021-01-02T21:20:00Z,27.1988,-90.2819,1343.0,6.2,280.2,-9999.0,'111111111,111111111,999999991'
BP,ioos:station:wmo:42369:4,2021-01-02T21:40:00Z,27.1988,-90.2819,1343.0,7.4,271.5,-9999.0,'111111111,111111111,999999991'
BP,ioos:station:wmo:42369:4,2021-01-02T22:00:00Z,27.1991,-90.2809,1343.0,6.3,270.9,-9999.0,'111111111,111111111,999999991'
BP,ioos:station:wmo:42369:4,2021-01-02T22:20:00Z,27.1991,-90.2806,1343.0,6.0,255.5,-9999.0,'111111111,111111111,999999991'
BP,ioos:station:wmo:42369:4,2021-01-02T22:40:00Z,27.1992,-90.2805,1343.0,5.9,263.2,-9999.0,'111111111,111111111,999999991'
BP,ioos:station:wmo:42369:4,2021-01-02T23:00:00Z,27.1993,-90.2803,1343.0,6.3,253.3,-9999.0,'111111111,111111111,999999991'
BP,ioos:station:wmo:42369:4,2021-01-02T23:20:00Z,27.1991,-90.2807,1343.0,6.9,256.6,-9999.0,'111111111,111111111,999999991'
BP,ioos:station:wmo:42369:4,2021-01-02T23:40:00Z,27.1991,-90.2807,1343.0,7.4,255.2,-9999.0,'111111111,111111111,999999991'
BP,ioos:station:wmo:42369:4,2021-01-03T00:00:00Z,27.1995,-90.2795,1343.0,5.8,264.1,-9999.0,'111111111,111111111,999999991'
BP,ioos:station:wmo:42369:4,2021-01-03T00:20:00Z,27.1996,-90.2793,1343.0,7.2,253.1,-9999.0,'111111111,111111111,999999991'
BP,ioos:station:wmo:42369:4,2021-01-03T00:40:00Z,27.1997,-90.2791,1343.0,7.5,264.7,-9999.0,'111111111,111111111,999999991'
BP,ioos:station:wmo:42369:4,2021-01-03T01:00:00Z,27.1997,-90.2789,1343.0,6.0,265.2,-9999.0,'111111111,111111111,999999991'
BP,ioos:station:wmo:42369:4,2021-01-03T01:20:00Z,27.1996,-90.2794,1343.0,7.2,268.4,-9999.0,'111111111,111111111,999999991'
BP,ioos:station:wmo:42369:4,2021-01-03T01:40:00Z,27.1996,-90.2794,1343.0,6.4,251.8,-9999.0,'111111111,111111111,999999991'
BP,ioos:station:wmo:42369:4,2021-01-03T02:00:00Z,27.1999,-90.2788,1343.0,6.5,270.0,-9999.0,'111111111,111111111,999999991'
BP,ioos:station:wmo:42369:4,2021-01-03T02:20:00Z,27.1999,-90.2789,1343.0,6.9,266.7,-9999.0,'111111111,111111111,999999991'
BP,ioos:station:wmo:42369:4,2021-01-03T02:40:00Z,27.1999,-90.2787,1343.0,7.0,269.2,-9999.0,'111111111,111111111,999999991'
BP,ioos:station:wmo:42369:4,2021-01-03T03:00:00Z,27.1998,-90.2787,1343.0,5.9,270.0,-9999.0,'111111111,111111111,999999991'
BP,ioos:station:wmo:42369:4,2021-01-03T03:20:00Z,27.1999,-90.2789,1343.0,5.6,269.0,-9999.0,'111111111,111111111,999999991'
BP,ioos:station:wmo:42369:4,2021-01-03T03:40:00Z,27.1999,-90.2789,1343.0,6.3,260.8,-9999.0,'111111111,111111111,999999991'
BP,ioos:station:wmo:42369:4,2021-01-03T04:00:00Z,27.1997,-90.2788,1343.0,5.4,261.4,-9999.0,'111111111,111111111,999999991'
BP,ioos:station:wmo:42369:4,2021-01-03T04:20:00Z,27.1996,-90.2789,1343.0,6.3,266.4,-9999.0,'111111111,111111111,999999991'
BP,ioos:station:wmo:42369:4,2021-01-03T04:40:00Z,27.1996,-90.2789,1343.0,6.6,265.7,-9999.0,'111111111,111111111,999999991'
BP,ioos:station:wmo:42369:4,2021-01-03T05:00:00Z,27.1996,-90.2790,1343.0,6.1,271.9,-9999.0,'111111111,111111111,999999991'
BP,ioos:station:wmo:42369:4,2021-01-03T05:20:00Z,27.1995,-90.2791,1343.0,6.3,274.5,-9999.0,'111111111,111111111,999999991'
BP,ioos:station:wmo:42369:4,2021-01-03T05:40:00Z,27.1995,-90.2793,1343.0,6.1,264.4,-9999.0,'111111111,111111111,999999991'
BP,ioos:station:wmo:42369:4,2021-01-03T06:00:00Z,27.1994,-90.2795,1343.0,6.1,275.6,-9999.0,'111111111,111111111,999999991'
BP,ioos:station:wmo:42369:4,2021-01-03T06:20:00Z,27.1993,-90.2796,1343.0,5.6,277.1,-9999.0,'111111111,111111111,999999991'
BP,ioos:station:wmo:42369:4,2021-01-03T06:40:00Z,27.1993,-90.2796,1343.0,5.1,275.6,-9999.0,'111111111,111111111,999999991'
BP,ioos:station:wmo:42369:4,2021-01-03T07:00:00Z,27.1992,-90.2797,1343.0,5.6,272.0,-9999.0,'111111111,111111111,999999991'
BP,ioos:station:wmo:42369:4,2021-01-03T07:20:00Z,27.1992,-90.2798,1343.0,6.0,269.0,-9999.0,'111111111,111111111,999999991'
BP,ioos:station:wmo:42369:4,2021-01-03T07:40:00Z,27.1992,-90.2800,1343.0,6.2,262.5,-9999.0,'111111111,111111111,999999991'
BP,ioos:station:wmo:42369:4,2021-01-03T08:00:00Z,27.1991,-90.2802,1343.0,6.5,268.2,-9999.0,'111111111,111111111,999999991'
BP,ioos:station:wmo:42369:4,2021-01-03T08:20:00Z,27.1991,-90.2803,1343.0,5.4,270.0,-9999.0,'111111111,111111111,999999991'
BP,ioos:station:wmo:42369:4,2021-01-03T08:40:00Z,27.1991,-90.2803,1343.0,6.3,285.6,-9999.0,'111111111,111111111,999999991'
BP,ioos:station:wmo:42369:4,2021-01-03T09:00:00Z,27.1991,-90.2803,1343.0,6.8,294.3,-9999.0,'111111111,111111111,999999991'
BP,ioos:station:wmo:42369:4,2021-01-03T09:20:00Z,27.1991,-90.2805,1343.0,6.2,305.8,-9999.0,'111111111,111111111,999999991'
BP,ioos:station:wmo:42369:4,2021-01-03T09:40:00Z,27.1991,-90.2806,1343.0,5.9,312.3,-9999.0,'111111111,111111111,999999991'
BP,ioos:station:wmo:42369:4,2021-01-03T10:00:00Z,27.1991,-90.2807,1343.0,6.6,308.3,-9999.0,'111111111,111111111,999999991'
BP,ioos:station:wmo:42369:4,2021-01-03T10:20:00Z,27.1991,-90.2808,1343.0,4.3,326.3,-9999.0,'111111111,111111111,999999991'
BP,ioos:station:wmo:42369:4,2021-01-03T10:40:00Z,27.1991,-90.2809,1343.0,5.7,318.5,-9999.0,'111111111,111111111,999999991'
BP,ioos:station:wmo:42369:4,2021-01-03T11:00:00Z,27.1991,-90.2811,1343.0,5.1,303.1,-9999.0,'111111111,111111111,999999991'
BP,ioos:station:wmo:42369:4,2021-01-03T11:20:00Z,27.1991,-90.2811,1343.0,4.4,318.7,-9999.0,'111111111,111111111,999999991'
BP,ioos:station:wmo:42369:4,2021-01-03T11:40:00Z,27.1990,-90.2811,1343.0,3.3,315.0,-9999.0,'111111111,111111111,999999991'
BP,ioos:station:wmo:42369:4,2021-01-03T12:00:00Z,27.1990,-90.2812,1343.0,3.1,324.2,-9999.0,'111111111,111111111,999999991'
BP,ioos:station:wmo:42369:4,2021-01-03T12:20:00Z,27.1991,-90.2815,1343.0,2.8,316.5,-9999.0,'111331111,111111111,999999991'
BP,ioos:station:wmo:42369:4,2021-01-03T12:40:00Z,27.1991,-90.2816,1343.0,2.2,341.6,-9999.0,'111331111,111111111,999999991'
BP,ioos:station:wmo:42369:4,2021-01-03T13:00:00Z,27.1991,-90.2817,1343.0,3.6,342.1,-9999.0,'111111111,111111111,999999991'
BP,ioos:station:wmo:42369:4,2021-01-03T13:20:00Z,27.1991,-90.2819,1343.0,3.6,326.3,-9999.0,'111111111,111111111,999999991'
BP,ioos:station:wmo:42369:4,2021-01-03T13:40:00Z,27.1990,-90.2821,1343.0,3.7,325.0,-9999.0,'111111111,111111111,999999991'
BP,ioos:station:wmo:42369:4,2021-01-03T14:00:00Z,27.1991,-90.2821,1343.0,3.9,337.4,-9999.0,'111111111,111111111,999999991'
BP,ioos:station:wmo:42369:4,2021-01-03T14:20:00Z,27.1991,-90.2821,1343.0,3.7,334.1,-9999.0,'111111111,111111111,999999991'
BP,ioos:station:wmo:42369:4,2021-01-03T14:40:00Z,27.1991,-90.2821,1343.0,4.6,342.3,-9999.0,'111111111,111111111,999999991'
BP,ioos:station:wmo:42369:4,2021-01-03T15:00:00Z,27.1991,-90.2822,1343.0,2.8,351.9,-9999.0,'111331111,111111111,999999991'
BP,ioos:station:wmo:42369:4,2021-01-03T15:20:00Z,27.1991,-90.2821,1343.0,1.9,325.5,-9999.0,'111331111,111111111,999999991'
BP,ioos:station:wmo:42369:4,2021-01-03T15:40:00Z,27.1991,-90.2821,1343.0,2.4,340.8,-9999.0,'111331111,111111111,999999991'